Charter Quote
Worldwide +1-877-727-2538 Call
Select Language Lang
SAFETY RELIABILITY EXPERIENCE

Private Jet Charter Services - Dayong Airport (ZGDY)

Paramount Business Jets offers private jet charter flights and luxury airliner charters to and from Dayong Airport.

AIRPORT INFORMATION
ICAOZGDY
IATADYG
LOCATIONDayong, China
FACILITY TYPEAIRPORT

At Paramount Business Jets you can hire chartered private jets to and from Dayong Airport with as little as 4 hours of notice. All flights booked via Paramount Business Jets are operated by certified direct air carriers that meet and exceed the FAA part 135 and 121 protocol or a foreign equivalent safety authority. Furthermore, Paramount Business Jets subscribes to ARGUS for their third party safety checks of operators, aircraft, and crews prior each and every flight to and from Dayong Airport and worldwide.

  • Quote a trip using Dayong Airport or call us 24/7 - 365 days a year at +1-877-727-2538.
Questions? Call +1-877-727-2538

METAR Weather Data at Dayong Airport, ZGDY, DYG

STATIONZGDY
OBSERVEDFri Sep 6, 23:00 UTC
NOWMon Oct 21, 20:13 UTC
AGE1077:13 hr ago
WINDvaries at 2 mph
VISIBILITYgreater than 7 miles
CLOUDSclear skies
TEMP73°F (23°C)
DEWPT70°F (21°C)
HUMIDITY89%
BAROMETER1007 hPa (29.74 in Hg)
METARZGDY 062300Z VRB01MPS CAVOK 23/21 Q1007 NOSIG

Call us on +1-877-727-2538 (24 Hours) to Hire a Private Jet or Get a Quick Quote.

Find Airports Near any Location

Processing
...